This is the latest recevied weather packets stored in our database for station/object NO9B. If no packets are shown the sender has not sent any weather packets the latest 10 day(s).
| Time | Temp. | Humidity | Pressure | Rain* | Wind** | Luminosity | Snow |
|---|---|---|---|---|---|---|---|
| 1788201343 | 31.11° C | 67% | 1013.2 hPa | 0 mm | - | 575 W/m² | - |
| 1788201037 | 31.11° C | 67% | 1013.2 hPa | 0 mm | - | 587 W/m² | - |
| 1788200737 | 30.56° C | 69% | 1013.5 hPa | 0 mm | - | 551 W/m² | - |
| 1788200433 | 30.56° C | 68% | 1013.3 hPa | 0 mm | - | 610 W/m² | - |
| 1788200133 | 30° C | 69% | 1013.4 hPa | 0 mm | - | 409 W/m² | - |
| 1788199832 | 30° C | 69% | 1013.6 hPa | 0 mm | - | 427 W/m² | - |
| 1788199527 | 29.44° C | 69% | 1013.6 hPa | 0 mm | - | 325 W/m² | - |
| 1788199222 | 28.89° C | 70% | 1013.5 hPa | 0 mm | - | 170 W/m² | - |
| 1788198918 | 28.89° C | 69% | 1013.6 hPa | 0 mm | - | 182 W/m² | - |
| 1788198615 | 28.89° C | 68% | 1013.7 hPa | 0 mm | - | 152 W/m² | - |
| 1788198309 | 29.44° C | 68% | 1013.6 hPa | 0 mm | - | 192 W/m² | - |
| 1788198009 | 29.44° C | 69% | 1013.6 hPa | 0 mm | - | 199 W/m² | - |
| 1788197707 | 29.44° C | 66% | 1013.7 hPa | 0 mm | - | 182 W/m² | - |
| 1788197403 | 30° C | 65% | 1013.7 hPa | 0 mm | - | 231 W/m² | - |
| 1788197099 | 30.56° C | 65% | 1013.6 hPa | 0 mm | - | 385 W/m² | - |
| 1788196794 | 30° C | 68% | 1013.9 hPa | 0 mm | - | 625 W/m² | - |
| 1788196489 | 30° C | 69% | 1013.9 hPa | 0 mm | - | 579 W/m² | - |
| 1788196186 | 30° C | 66% | 1013.7 hPa | 0 mm | - | 537 W/m² | - |
| 1788195882 | 29.44° C | 67% | 1013.9 hPa | 0 mm | - | 533 W/m² | - |
| 1788195579 | 29.44° C | 66% | 1013.7 hPa | 0 mm | - | 516 W/m² | - |
| 1788195274 | 29.44° C | 69% | 1014 hPa | 0 mm | - | 444 W/m² | - |
| 1788194971 | 28.89° C | 69% | 1014 hPa | 0 mm | - | 497 W/m² | - |
| 1788194666 | 28.89° C | 69% | 1013.9 hPa | 0 mm | - | 492 W/m² | - |
| 1788194361 | 28.89° C | 68% | 1013.9 hPa | 0 mm | - | 374 W/m² | - |
| 1788194057 | 28.33° C | 70% | 1013.9 hPa | 0 mm | - | 518 W/m² | - |
* Rain latest hour (hover to see other rain measurements)
** Current wind speed in m/s (hover to see current wind gust speed)